{"data":{"norad_id":64828,"intl_designator":"2025-151N","name":"KUIPER-00082","alt_names":[],"object_type":"PAYLOAD","status":"ACTIVE","operator":null,"country":"US","launch_date":"2025-07-16","launch_site_code":"AFETR","launch_vehicle":null,"mission":null,"orbit_class":"UNKNOWN","rcs_meters":null,"size_class":null,"mass_kg":null,"dimensions":null,"purposes":[],"wikipedia_slug":null,"has_3d_model":false,"image_url":null,"decayed_at":null,"tle_current":{"epoch":"2026-05-25T03:35:42.491040Z","epoch_age_seconds":52287,"freshness":"FRESH","line1":"1 64828U 25151N   26145.14979735  .00003521  00000+0  49060-3 0  9997","line2":"2 64828  51.9018 310.0044 0000638 111.5736 248.5294 14.79937122 46804","mean_motion":14.79937122,"eccentricity":6.38e-5,"inclination_deg":51.9018,"raan_deg":310.0044,"arg_perigee_deg":111.5736,"mean_anomaly_deg":248.5294,"bstar":0.0004906,"rev_number":4680,"period_min":97.301431161749,"perigee_km":629.07552838906,"apogee_km":629.9697057562,"semimajor_km":7007.6596170726,"source":"CELESTRAK","updated_at":"2026-05-25T13:38:04.824882Z"}}}